Location: Basse Occidentale du Courleau
(48.3833°N, 4.8333°W)
Time: 19:30:56
(UTC+00:00)

ATLAS 2AS CENTAUR R/B - Pass Details

Date: 05 July 2020
Orbit: 930 x 1282 km, 63.7° (Epoch: 19 July)

Event Time Altitude Azimuth Distance (km) Brightness Sun altitude
Rises 22:29:58 0° 318° (NW) 4,203 7.4 -14.5°
Reaches altitude 10° 22:32:53 10° 321° (NW) 3,200 6.5 -14.7°
Maximum altitude 22:40:34 69° 44° (NE) 1,242 3.1 -15.3°
Enters shadow 22:46:18 17° 126° (SE) 2,501 4.1 -15.7°
